| time (UTC) | temp F | wind direction | speed MPH | gust MPH | rain 1hr in | rain 24hr in | rain mn in | humidity % | barometer mb |
| 20260504081513 | 44 | 68 | 1.0 | 5.0 | 0.00 | 0.68 | 0.46 | 56 | 1002.0 |
| 20260504044551 | 40 | 56 | 1.0 | 2.0 | 0.00 | 0.68 | 0.46 | 66 | 1003.3 |
| 20260504043051 | 41 | 56 | 1.0 | 3.0 | 0.00 | 0.68 | 0.46 | 64 | 1003.5 |
| 20260504041549 | 40 | 89 | 1.0 | 2.0 | 0.00 | 0.68 | 0.46 | 65 | 1003.6 |
| 20260504040046 | 41 | 46 | 0.0 | 3.0 | 0.00 | 0.68 | 0.46 | 62 | 1003.6 |
| 20260504034554 | 42 | 81 | 1.0 | 2.0 | 0.00 | 0.68 | 0.46 | 60 | 1003.7 |
| 20260504033051 | 42 | 117 | 0.0 | 2.0 | 0.00 | 0.68 | 0.46 | 59 | 1003.7 |
| 20260504031534 | 46 | 135 | 1.0 | 2.0 | 0.00 | 0.68 | 0.46 | 50 | 1003.5 |
| 20260504030030 | 49 | 113 | 1.0 | 2.0 | 0.00 | 0.68 | 0.46 | 45 | 1003.5 |
| 20260504024532 | 52 | 223 | 0.0 | 2.0 | 0.00 | 0.68 | 0.46 | 40 | 1003.6 |
| 20260504023017 | 54 | 223 | 1.0 | 2.0 | 0.00 | 0.68 | 0.46 | 37 | 1003.4 |
| 20260504021518 | 59 | 178 | 0.0 | 2.0 | 0.00 | 0.68 | 0.46 | 31 | 1003.3 |
| 20260504020015 | 61 | 321 | 1.0 | 4.0 | 0.00 | 0.68 | 0.46 | 28 | 1003.3 |
| 20260504014518 | 62 | 295 | 1.0 | 5.0 | 0.00 | 0.79 | 0.46 | 27 | 1003.3 |
| 20260504013019 | 64 | 283 | 3.0 | 9.0 | 0.02 | 0.79 | 0.46 | 24 | 1003.4 |
| 20260504011512 | 65 | 342 | 4.0 | 12.0 | 0.05 | 0.79 | 0.46 | 24 | 1003.5 |
| 20260504010007 | 65 | 321 | 6.0 | 12.0 | 0.06 | 0.79 | 0.46 | 24 | 1003.7 |
| 20260504004507 | 67 | 303 | 5.0 | 14.0 | 0.08 | 0.91 | 0.46 | 22 | 1003.9 |
| 20260504003004 | 67 | 281 | 5.0 | 19.0 | 0.06 | 0.89 | 0.44 | 24 | 1003.9 |
| 20260504001505 | 67 | 312 | 5.0 | 19.0 | 0.03 | 0.86 | 0.41 | 23 | 1004.0 |
| 20260504000138 | 67 | 304 | 5.0 | 13.0 | 0.04 | 0.85 | 0.40 | 22 | 1004.1 |
| 20260503234603 | 68 | 297 | 7.0 | 16.0 | 0.03 | 1.02 | 0.38 | 22 | 1004.1 |
| 20260503233057 | 68 | 308 | 5.0 | 16.0 | 0.05 | 1.02 | 0.38 | 23 | 1004.2 |
| 20260503231556 | 67 | 25 | 6.0 | 15.0 | 0.05 | 1.02 | 0.38 | 26 | 1004.2 |
| 20260503230025 | 68 | 279 | 6.0 | 12.0 | 0.06 | 1.00 | 0.36 | 27 | 1004.2 |
| 20260503224528 | 68 | 336 | 7.0 | 15.0 | 0.06 | 1.07 | 0.35 | 28 | 1004.3 |
| 20260503223016 | 66 | 303 | 7.0 | 12.0 | 0.04 | 1.05 | 0.33 | 28 | 1004.3 |
| 20260503221513 | 67 | 305 | 7.0 | 15.0 | 0.03 | 1.04 | 0.32 | 25 | 1004.6 |
| 20260503220018 | 67 | 295 | 7.0 | 14.0 | 0.01 | 1.02 | 0.30 | 24 | 1004.7 |
| 20260503214510 | 68 | 269 | 7.0 | 14.0 | 0.00 | 1.14 | 0.28 | 28 | 1004.8 |
| 20260503213004 | 67 | 290 | 7.0 | 15.0 | 0.02 | 1.14 | 0.28 | 27 | 1005.1 |
| 20260503211503 | 65 | 299 | 5.0 | 15.0 | 0.02 | 1.14 | 0.28 | 32 | 1005.5 |
| 20260503210059 | 66 | 293 | 6.0 | 15.0 | 0.02 | 1.14 | 0.28 | 31 | 1005.7 |
| 20260503204557 | 65 | 112 | 5.0 | 14.0 | 0.02 | 1.15 | 0.28 | 32 | 1005.8 |
| 20260503203056 | 66 | 314 | 8.0 | 18.0 | 0.00 | 1.13 | 0.27 | 31 | 1005.9 |
| 20260503201550 | 66 | 278 | 8.0 | 18.0 | 0.00 | 1.13 | 0.27 | 32 | 1006.0 |
| 20260503200046 | 65 | 338 | 4.0 | 15.0 | 0.00 | 1.13 | 0.27 | 33 | 1006.1 |
| 20260503194539 | 64 | 290 | 8.0 | 15.0 | 0.07 | 1.21 | 0.27 | 31 | 1006.4 |
| 20260503193030 | 63 | 286 | 5.0 | 14.0 | 0.13 | 1.21 | 0.27 | 37 | 1006.6 |
| 20260503191525 | 62 | 227 | 9.0 | 23.0 | 0.13 | 1.21 | 0.27 | 37 | 1006.9 |
| 20260503190018 | 61 | 274 | 9.0 | 16.0 | 0.16 | 1.21 | 0.27 | 45 | 1007.2 |
| 20260503184518 | 58 | 248 | 10.0 | 18.0 | 0.12 | 1.13 | 0.20 | 56 | 1007.5 |
| 20260503183044 | 56 | 221 | 14.0 | 21.0 | 0.08 | 1.08 | 0.14 | 63 | 1007.9 |
| 20260503181532 | 57 | 244 | 14.0 | 26.0 | 0.12 | 1.08 | 0.14 | 53 | 1008.4 |
| 20260503180029 | 62 | 232 | 11.0 | 15.0 | 0.11 | 1.05 | 0.11 | 36 | 1008.3 |
| 20260503174524 | 62 | 202 | 10.0 | 16.0 | 0.09 | 1.02 | 0.08 | 37 | 1008.5 |
| 20260503173017 | 62 | 163 | 8.0 | 17.0 | 0.12 | 1.00 | 0.06 | 37 | 1008.6 |
| 20260503171511 | 62 | 165 | 8.0 | 15.0 | 0.14 | 0.96 | 0.02 | 38 | 1008.7 |